sat.trackr.live / text

‹ back to catalog

ZHANGHENG 1-01 (CSES-1)

NORAD 43194 · 2018-015C

PAYLOAD ACTIVE UNKNOWN

§ Identity

Operator
Country
PRC
Launch date
2018-02-02
Launch site
JSC
Launch vehicle
Mass (kg)
RCS (m²)

Purposes: science

External: N2YO · Heavens-Above · Gunter

§ Orbital elements

Epoch: 2026-05-25T04:12:21.957696Z

Period
94.67 min
Inclination
97.6856°
Eccentricity
0.0015847
Mean motion
15.21017076 rev/d
Perigee alt
491.9 km
Apogee alt
513.7 km
Semi-major
6,880.9 km
B*
2.6385e-4
RAAN
310.3810°
Arg perigee
348.4474°
Mean anomaly
11.6394°
Rev number
46,114

§ Raw data

ZHANGHENG 1-01 (CSES-1)1 43194U 18015C   26145.17525414  .00005799  00000+0  26385-3 0  99992 43194  97.6856 310.3810 0015847 348.4474  11.6394 15.21017076461149

JSON: /api/v1/satellites/43194 · /tle

For live sub-satellite position, see the globe view (requires WebGL).

§ Visibility from observer

Set your observer location to see the next 7 days of passes ≥ 10°. The values pass through the URL so the page stays shareable.

No JS? Fill the form by hand. The geolocation button needs JavaScript.

§ Radio — SatNOGS DB

ModeDescriptionDownlinkUplink
BPSK S-band telemetry 2.229 GHz

1 transmitter · refreshed weekly from db.satnogs.org